Location: Bun
(42.9667°N, 0.1500°W)
Time: 05:38:32
(UTC+00:00)

Cosmos 1954 Rocket - Pass Details

Date: 03 February 2023
Orbit: 751 x 780 km, 74.0° (Epoch: 26 March)

Event Time Altitude Azimuth Distance (km) Brightness Sun altitude
Rises 18:08:50 0° 196° (SSW) 3,231 7.7 -10.1°
Reaches altitude 10° 18:11:13 10° 196° (SSW) 2,304 6.9 -10.5°
Maximum altitude 18:16:27 85° 109° (ESE) 774 4.0 -11.5°
Drops below altitude 10° 18:21:41 10° 21° (NNE) 2,301 6.2 -12.4°
Sets 18:24:03 0° 21° (NNE) 3,227 6.9 -12.8°
